Welcome to the New NWS' Forecast!
Most changes are behind the scenes, but click here for differences you might notice.

Regional Weather Roundup (RWR)

Issued by Gray - Portland, ME (GYX)

                            
000
ASUS41 KGYX 170805
RWRGYX
WEATHER ROUNDUP FOR MAINE AND NEW HAMPSHIRE
NATIONAL WEATHER SERVICE GRAY ME
400 AM EDT WED OCT 17 2018

MEZ002-005-006-010-012-015-018-020-021-024-026-027-029-170900-
MAINE
  
CITY           SKY/WX    TMP DP  RH WIND       PRES   REMARKS
PORTLAND       FAIR      40  34  79 SW3       29.92F                  
SANFORD        FAIR      29  28  96 W3        29.94S                  
BAR HARBOR     FAIR      38  35  89 CALM      29.91F                  
WISCASSET      FAIR      38  37  97 CALM      29.93S                  
ROCKLAND       FAIR      38  36  92 CALM      29.91F                  
FRYEBURG       CLOUDY    34  33  96 CALM      29.90S                  
LEWISTONAUBURN CLOUDY    35  33  92 CALM      29.89F                  
AUGUSTA        MOCLDY    39  33  79 S5        29.89F                  
WATERVILLE     FAIR      36  32  85 SW3       29.86F                  
BANGOR         FAIR      39  30  70 S7        29.88F                  
GREENVILLE       N/A     34  28  79 VRB3      29.79F                  
MILLINOCKET    FAIR      33  28  81 CALM      29.85F                  
HOULTON        CLOUDY    33  28  81 SW5       29.81                   
PRESQUE ISLE   CLOUDY    33  27  78 S5        29.80F                  
FRENCHVILLE    CLOUDY    35  26  69 S6        29.72F                  
CARIBOU        MOCLDY    35  27  72 S8        29.77F                  
$$

NHZ002-005-008-009-011-012-014-170900-
NEW HAMPSHIRE
  
CITY           SKY/WX    TMP DP  RH WIND       PRES   REMARKS
PORTSMOUTH     MOCLDY    39  34  84 S5        29.93S                  
ROCHESTER      CLOUDY    38  35  89 CALM      29.93S                  
NASHUA         MOCLDY    37  36  96 CALM      29.95F                  
MANCHESTER     CLOUDY    41  35  79 CALM      29.92F                  
CONCORD        CLOUDY    34  32  92 CALM      29.93F                  
LACONIA        MOCLDY    41  34  76 W5        29.91                   
PLYMOUTH       CLOUDY    32  32 100 CALM      29.91F                  
BERLIN         MOCLDY    29  27  92 CALM      29.85F                  
WHITEFIELD     MOCLDY    32  30  92 CALM      29.85F                  
JAFFREY        FAIR      32  32 100 CALM      29.93F                  
KEENE          CLOUDY    31  31 100 CALM      29.94F                  
LEBANON        MOCLDY    41  33  73 SW3       29.89F                  
MT WASHINGTON  FOG       21  21 100 W41         N/A  VSB 0   WCI   0  
$$

VTZ005-007-008-170900-
VERMONT
  
CITY           SKY/WX    TMP DP  RH WIND       PRES   REMARKS
ST JOHNSBURY     N/A     33  32  96 MISG      29.84F                  
MONTPELIER     CLOUDY    42  34  73 S8        29.87F                  
BURLINGTON     CLOUDY    47  33  58 S14       29.83F                  
$$

MAZ007-012-024-CTZ003-RIZ002-NYZ038-NYZ072-170900-
SOUTHERN NEW ENGLAND AND NY
  
CITY           SKY/WX    TMP DP  RH WIND       PRES   REMARKS
BOSTON         FAIR      46  36  68 W9        29.96F                  
WORCESTER      FAIR      37  33  85 SW9       29.94F                  
NANTUCKET      MOCLDY    50  40  68 NW6       30.00F                  
PROVIDENCE     FAIR      42  36  79 W5        29.99F                  
HARTFORD       FAIR      40  36  86 S9        29.96F                  
ALBANY         FAIR      42  35  76 S7        29.94F                  
NEW YORK CITY  MOCLDY    52  35  52 W8        30.01F                  
$$

ANZ081-ANZ082-ANZ150-NHZ014-MEZ023>029-170900-
COASTAL MARINE OBSERVATIONS
  
STATION/POSITION TIME  TEMP    WIND        PRES    WAVE
                       AIR SEA DIR/SP/G            HT/PER
                 (UTC) (F)     (DEG/KT/KT) (MB)    (FT/S)
MOUNT DESERT ROC 0800   50     180/ 12/ 13 1013.2F
MATINICUS ROCK   0700   49     170/ 10/ 11 1012.8F
ISLE OF SHOALS   0700   47     240/ 15/ 16 1013.4F
JEFFREYS LEDGE   0706      57                N/A     3/ 4
$$

.............KEY..............
   WCI - WIND CHILL
   TC  - TEMPERATURE IN CELSIUS
   VSB - VISIBILITY IN MILES
   HX  - HEAT INDEX
   FAIR- INDICATES FEW OR NO CLOUDS BELOW 12,000 FT, WITH NO 
         SIGNIFICANT WEATHER AND/OR OBSTRUCTIONS TO VISIBILITY.